Time,TemperatureF,DewpointF,PressureIn,WindDirection,WindDirectionDegrees,WindSpeedMPH,WindSpeedGustMPH,Humidity,HourlyPrecipIn,Conditions,Clouds,dailyrainin,SolarRadiationWatts/m^2,SoftwareType,DateUTC
2013-02-02 00:02:00,3.0,0.0,-100.00,South,178,4.0,8.0,87,0.00,,,0.00,0.000000,,2013-02-02 06:02:00,
2013-02-02 00:12:00,3.0,0.0,-100.00,South,178,4.0,8.0,87,0.00,,,0.00,0.000000,,2013-02-02 06:12:00,
2013-02-02 00:32:00,4.0,1.0,-100.00,SSE,168,3.0,4.0,89,0.00,,,0.00,0.000000,,2013-02-02 06:32:00,
2013-02-02 00:42:00,4.0,1.0,-100.00,SSE,168,3.0,4.0,89,0.00,,,0.00,0.000000,,2013-02-02 06:42:00,
2013-02-02 00:52:00,4.0,1.0,-100.00,SSE,168,3.0,4.0,89,0.00,,,0.00,0.000000,,2013-02-02 06:52:00,
2013-02-02 01:02:00,4.0,1.0,-100.00,SSE,168,3.0,4.0,89,0.00,,,0.00,0.000000,,2013-02-02 07:02:00,
2013-02-02 01:11:00,4.0,1.0,-100.00,SSE,168,3.0,4.0,89,0.00,,,0.00,0.000000,,2013-02-02 07:11:00,
2013-02-02 01:32:00,4.0,2.0,-100.00,East,95,0.0,3.0,90,0.00,,,0.00,0.000000,,2013-02-02 07:32:00,
2013-02-02 01:42:00,4.0,2.0,-100.00,East,95,0.0,3.0,90,0.00,,,0.00,0.000000,,2013-02-02 07:42:00,
2013-02-02 01:52:00,4.0,2.0,-100.00,East,95,0.0,3.0,90,0.00,,,0.00,0.000000,,2013-02-02 07:52:00,
2013-02-02 02:01:00,4.0,2.0,-100.00,East,95,0.0,3.0,90,0.00,,,0.00,0.000000,,2013-02-02 08:01:00,
2013-02-02 02:11:00,4.0,2.0,-100.00,East,95,0.0,3.0,90,0.00,,,0.00,0.000000,,2013-02-02 08:11:00,
2013-02-02 03:32:00,4.0,1.0,-100.00,NE,51,3.0,5.0,89,-99.99,,,0.00,0.000000,,2013-02-02 09:32:00,
2013-02-02 03:42:00,4.0,1.0,-100.00,NE,51,3.0,5.0,89,-99.99,,,0.00,0.000000,,2013-02-02 09:42:00,
2013-02-02 03:52:00,4.0,1.0,-100.00,NE,51,3.0,5.0,89,-99.99,,,0.00,0.000000,,2013-02-02 09:52:00,
2013-02-02 04:01:00,4.0,1.0,-100.00,NE,51,3.0,5.0,89,-99.99,,,0.00,0.000000,,2013-02-02 10:01:00,
2013-02-02 04:11:00,4.0,1.0,-100.00,NE,51,3.0,5.0,89,-99.99,,,0.00,0.000000,,2013-02-02 10:11:00,
2013-02-02 04:32:00,5.0,3.0,-100.00,NNE,25,0.0,4.0,90,0.00,,,0.00,0.000000,,2013-02-02 10:32:00,
2013-02-02 04:42:00,5.0,3.0,-100.00,NNE,25,0.0,4.0,90,0.00,,,0.00,0.000000,,2013-02-02 10:42:00,
2013-02-02 04:52:00,5.0,3.0,-100.00,NNE,25,0.0,4.0,90,0.00,,,0.00,0.000000,,2013-02-02 10:52:00,
2013-02-02 05:01:00,5.0,3.0,-100.00,NNE,25,0.0,4.0,90,0.00,,,0.00,0.000000,,2013-02-02 11:01:00,
2013-02-02 05:11:00,5.0,3.0,-100.00,NNE,25,0.0,4.0,90,0.00,,,0.00,0.000000,,2013-02-02 11:11:00,
2013-02-02 05:32:00,4.0,1.0,-100.00,North,358,3.0,5.0,89,0.00,,,0.00,0.000000,,2013-02-02 11:32:00,
2013-02-02 05:42:00,4.0,1.0,-100.00,North,358,3.0,5.0,89,0.00,,,0.00,0.000000,,2013-02-02 11:42:00,
2013-02-02 05:52:00,4.0,1.0,-100.00,North,358,3.0,5.0,89,0.00,,,0.00,0.000000,,2013-02-02 11:52:00,
2013-02-02 06:02:00,4.0,1.0,-100.00,North,358,3.0,5.0,89,0.00,,,0.00,0.000000,,2013-02-02 12:02:00,
2013-02-02 06:11:00,4.0,1.0,-100.00,North,358,3.0,5.0,89,0.00,,,0.00,0.000000,,2013-02-02 12:11:00,
2013-02-02 06:32:00,4.0,1.0,-100.00,North,354,5.0,7.0,87,0.00,,,0.00,0.000000,,2013-02-02 12:32:00,
2013-02-02 06:42:00,4.0,1.0,-100.00,North,354,5.0,7.0,87,0.00,,,0.00,0.000000,,2013-02-02 12:42:00,
2013-02-02 06:52:00,4.0,1.0,-100.00,North,354,5.0,7.0,87,0.00,,,0.00,0.000000,,2013-02-02 12:52:00,
2013-02-02 07:02:00,4.0,1.0,-100.00,North,354,5.0,7.0,87,0.00,,,0.00,0.000000,,2013-02-02 13:02:00,
2013-02-02 07:11:00,4.0,1.0,-100.00,North,354,5.0,7.0,87,0.00,,,0.00,0.000000,,2013-02-02 13:11:00,
2013-02-02 07:33:00,4.0,1.0,-100.00,North,355,6.0,11.0,85,0.00,,,0.00,0.000000,,2013-02-02 13:33:00,
2013-02-02 07:42:00,4.0,1.0,-100.00,North,355,6.0,11.0,85,0.00,,,0.00,0.000000,,2013-02-02 13:42:00,
2013-02-02 07:52:00,4.0,1.0,-100.00,North,355,6.0,11.0,85,0.00,,,0.00,0.000000,,2013-02-02 13:52:00,
2013-02-02 08:02:00,4.0,1.0,-100.00,North,355,6.0,11.0,85,0.00,,,0.00,0.000000,,2013-02-02 14:02:00,
2013-02-02 08:11:00,4.0,1.0,-100.00,North,355,6.0,11.0,85,0.00,,,0.00,0.000000,,2013-02-02 14:11:00,
2013-02-02 08:33:00,4.0,0.0,-100.00,NNW,343,8.0,11.0,83,0.00,,,0.00,13.000000,,2013-02-02 14:33:00,
2013-02-02 08:42:00,4.0,0.0,-100.00,NNW,343,8.0,11.0,83,0.00,,,0.00,13.000000,,2013-02-02 14:42:00,
2013-02-02 08:52:00,4.0,0.0,-100.00,NNW,343,8.0,11.0,83,0.00,,,0.00,13.000000,,2013-02-02 14:52:00,
2013-02-02 09:03:00,4.0,0.0,-100.00,NNW,343,8.0,11.0,83,0.00,,,0.00,13.000000,,2013-02-02 15:03:00,
2013-02-02 09:12:00,4.0,0.0,-100.00,NNW,343,8.0,11.0,83,0.00,,,0.00,13.000000,,2013-02-02 15:12:00,
2013-02-02 09:33:00,6.0,1.0,-100.00,NNW,344,6.0,12.0,79,0.00,,,0.00,56.000000,,2013-02-02 15:33:00,
2013-02-02 09:42:00,6.0,1.0,-100.00,NNW,344,6.0,12.0,79,0.00,,,0.00,56.000000,,2013-02-02 15:42:00,
2013-02-02 09:52:00,6.0,1.0,-100.00,NNW,344,6.0,12.0,79,0.00,,,0.00,56.000000,,2013-02-02 15:52:00,
2013-02-02 10:03:00,6.0,1.0,-100.00,NNW,344,6.0,12.0,79,0.00,,,0.00,56.000000,,2013-02-02 16:03:00,
2013-02-02 10:11:00,6.0,1.0,-100.00,NNW,344,6.0,12.0,79,0.00,,,0.00,56.000000,,2013-02-02 16:11:00,
2013-02-02 10:42:00,7.0,0.0,-100.00,NNW,338,9.0,14.0,72,0.00,,,0.00,205.000000,,2013-02-02 16:42:00,
2013-02-02 10:52:00,7.0,0.0,-100.00,NNW,338,9.0,14.0,72,0.00,,,0.00,205.000000,,2013-02-02 16:52:00,
2013-02-02 11:02:00,7.0,0.0,-100.00,NNW,338,9.0,14.0,72,0.00,,,0.00,205.000000,,2013-02-02 17:02:00,
2013-02-02 11:11:00,7.0,0.0,-100.00,NNW,338,9.0,14.0,72,0.00,,,0.00,205.000000,,2013-02-02 17:11:00,
2013-02-02 11:33:00,9.0,-1.0,-100.00,NNW,338,8.0,13.0,63,0.00,,,0.00,429.000000,,2013-02-02 17:33:00,
2013-02-02 11:42:00,9.0,-1.0,-100.00,NNW,338,8.0,13.0,63,0.00,,,0.00,429.000000,,2013-02-02 17:42:00,
2013-02-02 11:52:00,9.0,-1.0,-100.00,NNW,338,8.0,13.0,63,0.00,,,0.00,429.000000,,2013-02-02 17:52:00,
2013-02-02 12:02:00,9.0,-1.0,-100.00,NNW,338,8.0,13.0,63,0.00,,,0.00,429.000000,,2013-02-02 18:02:00,
2013-02-02 12:12:00,9.0,-1.0,-100.00,NNW,338,8.0,13.0,63,0.00,,,0.00,429.000000,,2013-02-02 18:12:00,
2013-02-02 12:32:00,11.0,-1.0,-100.00,NNW,335,7.0,11.0,57,0.00,,,-99.99,551.000000,,2013-02-02 18:32:00,
2013-02-02 12:42:00,11.0,-1.0,-100.00,NNW,335,7.0,11.0,57,0.00,,,-99.99,551.000000,,2013-02-02 18:42:00,
2013-02-02 12:52:00,11.0,-1.0,-100.00,NNW,335,7.0,11.0,57,0.00,,,-99.99,551.000000,,2013-02-02 18:52:00,
2013-02-02 13:02:00,11.0,-1.0,-100.00,NNW,335,7.0,11.0,57,0.00,,,-99.99,551.000000,,2013-02-02 19:02:00,
2013-02-02 13:12:00,11.0,-1.0,-100.00,NNW,335,7.0,11.0,57,0.00,,,-99.99,551.000000,,2013-02-02 19:12:00,
2013-02-02 13:32:00,12.0,-3.0,-100.00,NNW,337,6.0,12.0,50,0.00,,,0.00,538.000000,,2013-02-02 19:32:00,
2013-02-02 13:42:00,12.0,-3.0,-100.00,NNW,337,6.0,12.0,50,0.00,,,0.00,538.000000,,2013-02-02 19:42:00,
2013-02-02 13:52:00,12.0,-3.0,-100.00,NNW,337,6.0,12.0,50,0.00,,,0.00,538.000000,,2013-02-02 19:52:00,
2013-02-02 14:01:00,12.0,-3.0,-100.00,NNW,337,6.0,12.0,50,0.00,,,0.00,538.000000,,2013-02-02 20:01:00,
2013-02-02 14:11:00,12.0,-3.0,-100.00,NNW,337,6.0,12.0,50,0.00,,,0.00,538.000000,,2013-02-02 20:11:00,
2013-02-02 14:32:00,14.0,-2.0,-100.00,North,357,4.0,11.0,48,0.00,,,0.00,465.000000,,2013-02-02 20:32:00,
2013-02-02 14:42:00,14.0,-2.0,-100.00,North,357,4.0,11.0,48,0.00,,,0.00,465.000000,,2013-02-02 20:42:00,
2013-02-02 14:52:00,14.0,-2.0,-100.00,North,357,4.0,11.0,48,0.00,,,0.00,465.000000,,2013-02-02 20:52:00,
2013-02-02 15:02:00,14.0,-2.0,-100.00,North,357,4.0,11.0,48,0.00,,,0.00,465.000000,,2013-02-02 21:02:00,
2013-02-02 15:11:00,14.0,-2.0,-100.00,North,357,4.0,11.0,48,0.00,,,0.00,465.000000,,2013-02-02 21:11:00,
2013-02-02 15:32:00,12.0,-3.0,-100.00,West,274,4.0,7.0,50,0.00,,,0.00,282.000000,,2013-02-02 21:32:00,
2013-02-02 15:42:00,12.0,-3.0,-100.00,West,274,4.0,7.0,50,0.00,,,0.00,282.000000,,2013-02-02 21:42:00,
2013-02-02 15:52:00,12.0,-3.0,-100.00,West,274,4.0,7.0,50,0.00,,,0.00,282.000000,,2013-02-02 21:52:00,
2013-02-02 16:02:00,12.0,-3.0,-100.00,West,274,4.0,7.0,50,0.00,,,0.00,282.000000,,2013-02-02 22:02:00,
2013-02-02 16:12:00,12.0,-3.0,-100.00,West,274,4.0,7.0,50,0.00,,,0.00,282.000000,,2013-02-02 22:12:00,
2013-02-02 16:32:00,11.0,-3.0,-100.00,West,267,4.0,8.0,53,0.00,,,0.00,164.000000,,2013-02-02 22:32:00,
2013-02-02 16:42:00,11.0,-3.0,-100.00,West,267,4.0,8.0,53,0.00,,,0.00,164.000000,,2013-02-02 22:42:00,
2013-02-02 16:52:00,11.0,-3.0,-100.00,West,267,4.0,8.0,53,0.00,,,0.00,164.000000,,2013-02-02 22:52:00,
2013-02-02 17:02:00,11.0,-3.0,-100.00,West,267,4.0,8.0,53,0.00,,,0.00,164.000000,,2013-02-02 23:02:00,
2013-02-02 17:11:00,11.0,-3.0,-100.00,West,267,4.0,8.0,53,0.00,,,0.00,164.000000,,2013-02-02 23:11:00,
2013-02-02 17:32:00,7.0,-5.0,-100.00,West,277,4.0,7.0,57,0.00,,,0.00,52.000000,,2013-02-02 23:32:00,
2013-02-02 17:42:00,7.0,-5.0,-100.00,West,277,4.0,7.0,57,0.00,,,0.00,52.000000,,2013-02-02 23:42:00,
2013-02-02 17:52:00,7.0,-5.0,-100.00,West,277,4.0,7.0,57,0.00,,,0.00,52.000000,,2013-02-02 23:52:00,
2013-02-02 18:02:00,7.0,-5.0,-100.00,West,277,4.0,7.0,57,0.00,,,0.00,52.000000,,2013-02-03 00:02:00,
2013-02-02 18:11:00,7.0,-5.0,-100.00,West,277,4.0,7.0,57,0.00,,,0.00,52.000000,,2013-02-03 00:11:00,
2013-02-02 18:32:00,6.0,-3.0,-100.00,NE,49,0.0,4.0,67,0.00,,,0.00,0.000000,,2013-02-03 00:32:00,
2013-02-02 18:42:00,6.0,-3.0,-100.00,NE,49,0.0,4.0,67,0.00,,,0.00,0.000000,,2013-02-03 00:42:00,
2013-02-02 18:52:00,6.0,-3.0,-100.00,NE,49,0.0,4.0,67,0.00,,,0.00,0.000000,,2013-02-03 00:52:00,
2013-02-02 19:02:00,6.0,-3.0,-100.00,NE,49,0.0,4.0,67,0.00,,,0.00,0.000000,,2013-02-03 01:02:00,
2013-02-02 19:11:00,6.0,-3.0,-100.00,NE,49,0.0,4.0,67,0.00,,,0.00,0.000000,,2013-02-03 01:11:00,
2013-02-02 19:32:00,4.0,-2.0,-100.00,SSE,159,0.0,4.0,77,0.00,,,0.00,0.000000,,2013-02-03 01:32:00,
2013-02-02 19:42:00,4.0,-2.0,-100.00,SSE,159,0.0,4.0,77,0.00,,,0.00,0.000000,,2013-02-03 01:42:00,
2013-02-02 19:52:00,4.0,-2.0,-100.00,SSE,159,0.0,4.0,77,0.00,,,0.00,0.000000,,2013-02-03 01:52:00,
2013-02-02 20:01:00,4.0,-2.0,-100.00,SSE,159,0.0,4.0,77,0.00,,,0.00,0.000000,,2013-02-03 02:01:00,
2013-02-02 20:11:00,4.0,-2.0,-100.00,SSE,159,0.0,4.0,77,0.00,,,0.00,0.000000,,2013-02-03 02:11:00,
2013-02-02 20:42:00,2.0,-2.0,-100.00,East,82,2.0,4.0,81,0.00,,,0.00,0.000000,,2013-02-03 02:42:00,
2013-02-02 20:52:00,2.0,-2.0,-100.00,East,82,2.0,4.0,81,0.00,,,0.00,0.000000,,2013-02-03 02:52:00,
2013-02-02 21:02:00,2.0,-2.0,-100.00,East,82,2.0,4.0,81,0.00,,,0.00,0.000000,,2013-02-03 03:02:00,
2013-02-02 21:11:00,2.0,-2.0,-100.00,East,82,2.0,4.0,81,0.00,,,0.00,0.000000,,2013-02-03 03:11:00,
2013-02-02 21:32:00,-1.0,-4.0,-100.00,ESE,115,0.0,3.0,86,0.00,,,0.00,0.000000,,2013-02-03 03:32:00,
2013-02-02 21:42:00,-1.0,-4.0,-100.00,ESE,115,0.0,3.0,86,0.00,,,0.00,0.000000,,2013-02-03 03:42:00,
2013-02-02 21:52:00,-1.0,-4.0,-100.00,ESE,115,0.0,3.0,86,0.00,,,0.00,0.000000,,2013-02-03 03:52:00,
2013-02-02 22:01:00,-1.0,-4.0,-100.00,ESE,115,0.0,3.0,86,0.00,,,0.00,0.000000,,2013-02-03 04:01:00,
2013-02-02 22:11:00,-1.0,-4.0,-100.00,ESE,115,0.0,3.0,86,0.00,,,0.00,0.000000,,2013-02-03 04:11:00,
2013-02-02 22:32:00,0.0,-3.0,-100.00,ENE,57,0.0,0.0,87,0.00,,,0.00,0.000000,,2013-02-03 04:32:00,
2013-02-02 22:42:00,0.0,-3.0,-100.00,ENE,57,0.0,0.0,87,0.00,,,0.00,0.000000,,2013-02-03 04:42:00,
2013-02-02 22:52:00,0.0,-3.0,-100.00,ENE,57,0.0,0.0,87,0.00,,,0.00,0.000000,,2013-02-03 04:52:00,
2013-02-02 23:03:00,0.0,-3.0,-100.00,ENE,57,0.0,0.0,87,0.00,,,0.00,0.000000,,2013-02-03 05:03:00,
2013-02-02 23:11:00,0.0,-3.0,-100.00,ENE,57,0.0,0.0,87,0.00,,,0.00,0.000000,,2013-02-03 05:11:00,
2013-02-02 23:32:00,2.0,-1.0,-100.00,SE,130,0.0,0.0,88,0.00,,,0.00,0.000000,,2013-02-03 05:32:00,
2013-02-02 23:42:00,2.0,-1.0,-100.00,SE,130,0.0,0.0,88,0.00,,,0.00,0.000000,,2013-02-03 05:42:00,
2013-02-02 23:52:00,2.0,-1.0,-100.00,SE,130,0.0,0.0,88,0.00,,,0.00,0.000000,,2013-02-03 05:52:00,